H-2A R/B

Last updated on Sat Aug 15 2026 00:02:08 GMT+0000 (Coordinated Universal Time)

1 43682U 18084L 26226.24166328 .00012793 00000+0 25181-3 0 9995 2 43682 98.8474 117.8977 0021430 189.0942 170.9918 15.47194458430097
UTC large
Height (km)
Speed (km/s)
/
Latitude / Longitude
Inclination (degrees)
Orbital Period (minutes)
Azimuth
Elevation
Range (km)
Doppler Factor

Next 0 passes for location: London (51.5072 / 0.1276)

No passes found over London.
H-2A R/B